Погода в Льорет-де-Маре

Испания     41°42′13″N   2°50′39″E
темп.,
°C
ветер,
м/с
пор.,
м/с
влажн.,
%
обл.,
%
осадки,
мм/ч
давл.,
гПа
погр.,
м
14 июня, пн
пн1423:00+22з22553 0.0 101817
02:00+21з225196 0.0 101814
05:00+21сз21515 0.0 101712
08:00+24с12485 0.0 101876
11:00+30юв2235100 0.0 1017859
14:00+30ююв544252 0.0 1018567
17:00+30ююв45351 0.0 1016606
20:00+27ю12475 0.1 101696
15 июня, вт
вт1523:00+22з11596 0.0 101712
02:00+22ссз225799 0.0 101613
05:00+22сз215713 0.0 101612
08:00+24ссз11530 0.0 101766
11:00+31ююв12310 0.0 1017896
14:00+31ююв56290 0.0 1016727
17:00+29ююв57370 0.0 1016653
20:00+26ююв23500 0.0 1016215
16 июня, ср
ср1623:00+21з216232 0.0 101614
02:00+21зсз2254100 0.0 101515
05:00+22сз115197 0.0 101411
08:00+24зсз0050100 0.0 101452
11:00+29ю353848 0.0 1013683
14:00+30ююв673999 0.0 1012686
17:00+28ю574899 0.0 1012588
20:00+24ю3565100 0.0 1011176
17 июня, чт
чт1723:00+20ююз1182100 0.0 101213
02:00+20юз1187100 0.0 101212
05:00+19ссз1289100 0.0 101219
08:00+20с2483100 0.3 1011112
11:00+26ссв1357100 0.0 1011989
14:00+27вюв55531 0.0 10101235
17:00+27ююв44565 0.0 1009953
20:00+24ю46720 0.0 1009383
18 июня, пт
пт1823:00+20юз11850 0.0 101219
02:00+19с22825 0.0 101329
05:00+18ссз118798 0.0 101322
08:00+20ссв12705 0.0 1014122
11:00+26ююв4451100 0.1 1016905
14:00+25ю1155100 0.8 1015572
17:00+26ююв555498 0.1 1015699
20:00+23ююв346871 0.1 1014345